SCP
0 0 0 0 -0 -0 0 -0 -0 -0 -0 0 0 0 0 0 0 0 -0 -0 0 -0 -0 -0 -0 -0 -0 -0 -0 -0 -0 -0 -0 -0 -0 -0 -0 -0 0 -0 -0 -0 0 0 0 0 0 0 0
0 0 -0 0 -0 -0 0 0 -0 -0 -0 0 0 0 0 0 0 0 0 0 -0 -0 -0 -0 -0 -0 -0 -0 -0 -0 -0 -0 -0 -0 -0 -0 -0 -0 -0 0 0 0 0 0 0 0 0 0 0
0 0 0 0 0 -0 0 -0 -0 0 -0 0 0 0 0 0 0 0 0 0 -0 -0 -0 -0 -0 -0 -0 -0 -0 -0 -0 -0 -0 -0 -0 -0 -0 -0 -0 -0 -0 0 0 0 0 0 0 0 0
-0 -0 0 -0 0 0 0 0 0 -0 0 0 0 0 0 0 0 0 0 0 -0 -0 -0 -0 -0 -0 -0 -0 -0 -0 -0 -0 -0 -0 0 0 -0 0 0 0 0 0 0 0 0 0 -0 0 0
-0 0 0 0 0 0 0 0 0 0 0 0 0 0 0 0 0 0 0 0 -0 -0 -0 -0 -0 0 -0 -0 -0 -0 -0 -0 -0 -0 -0 0 0 0 0 0 0 0 0 0 0 0 0 0 0
-0 0 -0 0 0 0 0 0 0 0 0 0 0 0 0 0 0 0 0 0 0 -0 0 0 0 0 -0 -0 -0 -0 -0 -0 -0 -0 0 0 0 0 0 0 0 0 0 0 0 0 0 0 0
0 0 0 -0 0 0 0 0 0 0 0 0 0 0 0 0 0 0 0 0 0 0 0 0 0 0 -0 -0 -0 -0 -0 -0 0 0 0 0 0 0 0 0 0 0 0 0 0 0 0 0 0
0 0 0 0 0 0 0 0 0 0 0 0 0 0 0 0 0 0 0 0 0 0 0 0 0 0 -0 -0 -0 -0 -0 0 0 0 0 0 0 0 0 0 0 0 0 0 0 0 0 0 0
0 0 -0 0 -0 -0 -0 0 0 0 0 0 0 0 0 0 0 0 0 0 0 0 0 0 0 0 -0 -0 0 -0 -0 -0 0 0 0 0 0 0 0 0 0 0 0 0 0 0 0 0 0
0 0 0 0 0 -0 -0 0 0 0 0 0 0 0 0 0 0 0 0 0 0 0 -0 0 0 0 0 0 0 0 0 0 0 0 0 0 0 0 0 0 0 0 0 0 0 0 0 0 0
0 -0 0 0 0 0 0 0 0 0 0 0 0 0 0 0 0 0 0 0 0 0 0 0 0 0 0 0 0 0 0 0 0 0 0 0 0 0 0 0 0 0 0 -0 0 0 0 0 0
0 0 0 0 0 0 0 0 0 -0 0 0 0 0 0 0 0 0 -0 -0 -0 -0 -0 0 0 0 0 0 0 0 0 0 0 0 0 0 0 0 0 0 0 0 -0 -0 -0 0 0 0 0
0 0 0 0 0 0 0 0 0 0 0 0 0 0 0 0 0 0 -0 -0 -0 -0 -0 0 0 0 0 0 0 0 0 0 0 0 0 0 0 0 0 0 0 0 0 -0 -0 0 0 0 0
0 0 0 0 0 0 0 0 0 0 0 0 0 0 0 0 0 0 0 -0 -0 -0 0 0 0 0 0 0 0 0 0 0 0 0 0 0 0 0 0 0 0 0 0 0 0 0 0 0 0
0 0 0 0 0 0 0 0 0 0 0 0 0 0 0 0 0 0 0 0 0 0 0 0 0 0 0 0 0 0 0 0 0 0 0 0 0 0 0 0 0 0 0 0 0 0 0 0 0
0 0 0 0 0 0 0 0 0 0 0 -0 -0 0 0 0 0 0 0 0 0 0 0 0 0 0 0 0 0 0 0 0 0 0 0 0 0 0 0 0 0 0 0 0 0 0 0 0 0
0 0 0 0 0 0 0 0 0 0 0 -0 -0 0 0 0 0 0 0 0 0 0 0 0 0 0 0 0 0 0 0 0 0 0 0 0 0 0 0 0 0 0 0 0 0 0 0 0 0
0 0 0 0 0 0 0 0 0 0 0 0 0 0 0 0 0 0 0 0 0 0 0 0 0 0 0 0 0 0 0 0 0 0 0 0 0 0 0 0 0 0 0 0 0 0 0 0 0
0 0 0 0 0 0 0 0 0 0 0 0 0 0 0 0 0 0 0 0 0 0 0 0 0 0 0 0 0 0 0 0 0 0 0 0 0 0 0 0 0 0 0 0 0 0 0 0 0
0 0 0 0 0 0 0 0 0 0 0 0 0 0 0 0 0 0 0 0 0 0 0 0 0 0 0 0 0 0 0 0 0 0 0 0 0 0 0 0 0 0 0 0 0 0 0 0 0
0 0 0 0 0 0 0 0 0 0 0 0 0 0 0 0 0 0 0 0 0 0 0 0 0 0 0 0 0 0 0 0 0 0 0 0 0 0 0 0 0 0 0 0 0 0 0 0 0
0 0 0 0 0 0 0 0 0 0 0 0 0 0 0 0 0 0 0 0 0 0 0 0 0 0 0 0 0 0 0 0 0 0 0 0 0 0 0 0 0 0 0 0 0 0 0 0 0
0 0 0 0 0 0 0 0 0 0 0 0 0 0 0 0 0 0 0 0 0 0 0 0 0 0 0 0 0 0 0 0 0 0 0 0 0 0 0 0 0 0 0 0 0 0 0 0 0
0 0 0 0 0 0 0 0 0 0 0 0 0 0 0 0 0 0 0 0 0 0 0 0 0 0 0 0 0 0 0 0 0 0 0 0 0 0 0 0 0 0 0 0 0 0 0 0 0
0 0 0 0 0 0 0 0 0 0 0 0 0 0 0 0 0 0 0 0 0 0 0 0 0 0 0 0 0 0 0 0 0 0 0 0 0 0 0 0 0 0 0 0 0 0 0 0 0
0 0 0 0 0 0 0 0 0 0 0 0 0 0 0 0 0 0 0 0 0 0 0 0 0 0 0 0 0 0 0 0 0 0 0 0 0 0 0 0 0 0 0 0 0 0 0 0 0
0 0 0 0 0 0 0 0 0 0 0 0 0 0 0 0 0 0 0 0 0 0 0 0 0 0 0 0 0 0 0 0 0 0 0 0 0 0 0 0 0 0 0 0 0 0 0 0 0
0 0 0 0 0 0 0 0 0 0 0 0 0 0 0 0 0 0 0 0 0 0 0 0 0 0 0 0 0 0 0 0 0 0 0 0 0 0 0 0 0 0 0 0 0 0 0 0 0
0 0 0 0 0 0 0 0 0 0 0 0 0 0 0 0 0 0 0 0 0 0 0 0 0 0 0 0 0 0 0 0 0 0 0 0 0 0 0 0 0 0 0 0 0 0 0 0 0
0 0 0 0 0 0 0 0 0 0 0 0 0 0 0 0 0 0 0 0 0 0 0 0 0 0 0 0 0 0 0 0 0 0 0 0 0 0 0 0 0 0 0 0 0 0 0 0 0
Wind_Speed_500mb
7 1 5 2 8 10 3 4 5 2 3 4 6 11 17 14 5 6 18 6 9 10 16 19 17 14 16 17 17 17 18 18 19 26 27 24 25 23 29 31 35 36 37 37 37 33 30 36 43
5 1 4 4 9 7 5 6 8 5 8 25 18 11 12 6 5 16 13 7 5 10 15 16 15 15 16 15 16 14 12 14 17 22 24 27 25 36 33 33 34 35 36 36 39 38 43 43 40
1 1 4 8 8 8 7 8 7 13 24 2 7 15 7 6 11 13 9 3 7 12 14 14 14 14 16 13 10 12 10 9 14 20 25 29 29 30 32 34 34 37 39 39 42 43 42 40 39
3 3 5 8 8 2 10 11 4 8 7 3 20 14 9 8 6 10 9 2 7 12 13 13 14 16 15 13 12 11 9 12 17 18 23 27 27 30 32 31 35 37 39 40 45 40 43 38 41
4 3 8 9 5 2 3 22 24 9 5 16 5 10 8 11 10 12 7 1 8 11 12 14 15 16 17 17 17 13 9 12 16 20 15 24 24 29 27 30 34 38 38 42 38 32 30 30 38
3 4 8 6 4 3 5 29 18 5 13 11 13 14 7 13 13 12 6 3 10 13 16 16 14 13 13 16 16 13 13 17 18 19 20 22 23 22 20 29 36 37 37 38 32 32 35 34 33
6 7 9 10 11 8 11 24 17 15 12 4 18 9 11 21 19 13 6 4 11 15 14 14 12 10 7 12 15 17 18 18 21 21 21 22 22 22 21 27 32 37 32 34 35 37 39 34 40
4 8 8 6 11 8 17 16 15 20 8 14 11 10 9 30 25 16 10 7 11 13 12 13 7 5 8 12 14 15 21 23 22 21 22 25 25 25 26 30 29 28 36 32 30 36 36 37 40
0 9 4 6 12 12 22 10 11 10 20 9 9 9 8 28 28 22 14 9 8 11 12 7 7 7 10 12 14 20 22 21 21 22 22 23 26 29 29 31 28 23 32 30 36 35 31 34 34
8 7 4 4 4 10 22 16 24 12 14 6 11 17 24 28 28 22 17 8 6 7 6 7 8 8 11 13 17 18 19 20 21 23 24 25 30 32 30 30 29 26 34 41 38 37 34 34 37
6 9 11 3 8 25 14 17 12 21 7 20 29 34 33 29 29 25 20 8 2 3 6 9 8 7 9 13 17 17 20 22 22 23 26 29 30 30 29 31 31 33 37 38 34 34 37 38 42
11 9 8 10 10 12 10 18 8 14 4 8 19 23 33 34 32 27 18 9 6 3 6 8 7 8 8 12 13 17 19 20 21 23 26 26 27 29 29 31 32 35 36 35 36 38 39 40 44
9 8 10 14 14 14 13 7 7 12 15 11 18 29 31 31 29 25 17 15 8 5 6 8 8 7 6 9 12 16 17 18 21 21 24 25 25 28 30 32 34 35 35 35 36 35 34 37 43
13 15 16 9 8 6 7 5 4 10 23 19 23 28 30 30 29 28 24 16 10 7 6 8 9 8 6 7 12 14 16 17 18 19 22 23 25 27 28 32 35 34 32 31 28 30 28 31 37
33 11 5 4 6 3 3 6 12 12 30 27 27 26 28 28 29 22 17 15 13 11 9 9 9 9 7 7 9 12 13 15 15 18 21 21 23 25 27 30 32 35 32 26 21 22 22 24 31
7 10 6 4 9 3 5 13 3 21 34 29 26 28 30 32 27 26 22 20 18 14 12 10 10 11 9 8 9 11 12 12 14 17 18 20 21 23 24 27 31 32 29 26 18 15 17 21 25
10 7 7 5 15 3 4 12 5 26 28 28 30 31 33 33 36 36 28 22 18 17 14 13 13 13 11 9 10 11 11 11 13 15 16 18 19 21 21 26 30 28 26 27 22 14 12 15 21
13 8 6 10 9 6 3 19 10 23 27 30 33 36 38 42 39 37 31 26 21 21 20 18 16 16 14 11 10 10 11 11 13 13 15 17 18 19 20 23 25 25 24 28 26 15 13 12 14
13 9 10 3 5 8 11 15 21 30 31 35 35 41 45 46 38 37 32 28 26 27 25 20 18 19 17 12 10 10 9 10 11 12 14 15 17 17 17 18 21 23 22 24 26 22 12 9 7
7 10 6 2 4 6 2 20 20 17 24 47 47 43 46 50 49 47 42 36 30 26 27 24 22 20 18 15 8 8 9 10 11 12 13 14 15 14 13 15 17 23 24 25 23 22 19 10 2
7 10 8 5 6 2 5 16 9 2 8 21 37 39 32 45 56 56 52 43 33 29 28 26 24 22 19 15 11 11 12 11 11 12 11 12 12 12 12 13 17 19 20 22 25 25 19 20 23
11 7 12 14 7 5 5 8 9 4 2 7 16 24 25 26 51 58 56 48 36 27 27 29 28 24 21 18 15 15 14 11 10 12 11 11 11 10 10 11 14 15 19 21 25 26 23 21 22
9 12 13 9 9 6 3 6 13 1 9 9 12 18 16 15 34 52 57 46 34 29 28 31 30 25 24 22 21 16 14 13 13 13 11 10 10 9 9 10 11 13 17 21 25 25 24 25 26
19 14 17 10 7 3 7 11 10 10 12 9 14 20 15 15 21 39 48 44 37 32 30 32 32 27 25 24 23 19 16 16 15 13 12 11 10 9 8 8 9 11 15 19 22 22 25 27 29
9 12 5 6 4 11 1 7 15 10 9 18 28 22 16 17 21 33 47 51 43 35 31 32 33 31 28 25 23 19 16 17 16 14 13 11 10 10 8 8 8 9 11 16 21 20 24 26 26
9 13 11 16 9 7 3 12 11 6 3 15 22 21 18 16 19 29 39 42 38 33 29 31 33 31 28 25 22 19 17 17 17 15 14 13 11 10 9 8 7 7 10 14 17 17 21 24 27
12 9 9 13 5 5 7 10 7 5 4 14 22 22 20 18 19 27 34 35 33 31 29 27 32 32 29 26 23 21 19 18 17 16 15 14 12 11 9 8 6 6 8 11 14 15 19 22 26
5 8 7 4 8 7 9 8 10 14 19 14 17 26 22 20 22 26 30 33 32 28 27 28 32 30 27 26 24 21 18 17 17 16 15 15 14 12 10 9 7 6 7 9 12 14 16 19 22
6 7 3 8 9 10 7 11 9 18 22 22 30 28 24 20 19 22 25 29 29 30 31 30 36 35 32 29 26 23 19 18 18 18 17 17 15 15 14 12 10 8 7 8 10 12 13 16 18
2 12 12 10 10 5 5 10 3 13 28 38 38 28 20 16 16 18 22 26 33 33 32 33 39 37 32 28 27 25 23 20 19 18 18 17 18 18 17 15 12 10 8 6 7 8 10 14 15
Wind_Direction_500mb
23 209 154 154 52 60 96 209 299 209 10 74 46 80 104 62 17 134 150 179 278 320 337 338 350 10 27 40 38 39 45 41 41 54 51 50 55 55 47 50 50 47 43 41 39 32 34 42 39
43 360 169 103 85 74 254 260 176 199 153 124 93 83 46 92 66 137 143 201 281 342 342 354 5 21 37 31 33 37 42 50 58 59 54 49 49 59 53 54 54 54 49 44 42 43 47 39 35
309 314 196 98 105 145 168 220 199 118 146 231 102 74 75 84 114 145 174 187 350 353 358 7 16 28 37 35 36 35 40 63 74 75 61 56 55 67 59 55 53 56 52 50 50 44 39 48 49
317 130 72 80 85 309 166 197 180 157 137 201 100 58 87 134 167 185 187 30 348 5 14 24 24 38 41 39 37 43 52 70 72 68 61 60 61 76 61 61 61 60 53 57 52 53 58 53 56
12 96 56 74 42 85 109 163 161 166 106 139 96 147 113 157 174 171 173 2 7 16 32 38 36 47 43 45 51 57 71 80 68 61 60 69 70 80 71 70 61 57 57 62 59 63 54 54 56
140 97 77 132 144 93 149 169 155 206 136 126 114 131 158 173 170 173 175 29 24 23 35 40 42 52 46 52 60 72 80 70 65 49 56 66 66 74 74 79 64 61 57 68 62 58 63 57 55
97 81 134 122 138 146 182 173 162 163 145 100 144 120 176 181 180 184 149 77 39 35 38 40 43 51 53 66 65 67 73 66 60 56 59 64 66 67 62 67 65 66 56 68 63 59 60 58 58
67 92 105 125 175 185 150 143 170 164 167 146 178 186 206 181 175 174 176 110 45 39 42 41 37 96 76 75 72 67 65 61 63 67 66 65 63 63 58 57 62 66 63 68 61 66 63 56 61
242 61 78 138 162 175 161 130 157 160 148 172 178 171 167 166 167 178 170 134 57 41 48 46 71 88 89 77 72 63 62 66 72 74 70 70 67 64 57 57 60 62 64 65 68 64 57 54 52
86 84 144 211 177 175 159 159 156 162 150 161 159 162 160 166 166 180 175 143 74 58 65 78 88 92 86 77 70 70 72 77 80 81 80 74 70 66 62 60 57 57 67 77 74 70 65 53 47
95 147 173 48 97 148 136 144 171 156 211 204 200 175 171 168 173 184 176 179 142 101 90 91 98 99 86 74 72 76 78 82 85 85 81 75 74 73 71 68 64 61 66 70 65 62 55 52 50
90 44 135 135 107 137 139 152 176 196 231 202 210 186 180 183 186 181 180 186 192 122 101 98 108 103 88 78 76 86 90 89 91 87 84 84 83 80 74 69 66 63 60 59 60 60 60 56 53
96 154 108 131 124 130 146 173 216 223 196 182 174 183 189 183 185 181 197 200 195 159 126 123 113 112 104 88 88 98 99 95 91 90 87 84 80 76 71 67 64 60 57 53 62 65 60 61 52
144 133 132 144 131 127 157 184 208 208 195 182 182 186 189 190 193 191 198 206 198 185 158 141 126 132 121 100 90 99 96 92 90 89 86 82 78 74 71 67 63 62 57 57 52 66 61 59 49
133 91 57 168 185 147 142 278 233 209 183 180 183 191 192 197 205 210 212 214 209 193 181 154 150 154 144 108 105 106 104 96 95 92 87 84 80 75 70 66 64 60 59 60 50 55 64 58 48
96 64 122 280 166 195 141 261 232 177 181 188 197 199 200 206 215 211 222 220 212 203 192 177 168 170 165 141 126 120 115 109 102 96 93 88 81 76 69 66 65 63 60 66 64 54 62 60 52
8 182 189 276 204 113 153 267 231 182 198 211 211 209 208 208 207 213 226 221 215 211 204 195 179 173 171 154 145 138 126 115 106 95 94 89 82 77 68 66 65 64 61 64 70 66 58 60 59
186 189 188 206 210 159 207 263 263 209 211 220 218 213 211 211 219 219 223 216 220 217 208 198 185 183 181 169 160 151 133 123 107 101 98 92 85 79 70 65 65 64 60 59 63 69 65 66 58
141 146 163 143 165 152 231 269 263 245 233 232 224 216 215 216 215 219 220 218 221 218 214 203 197 190 187 183 176 160 145 125 120 111 101 95 88 81 76 72 71 70 68 65 62 64 74 93 99
145 150 174 41 126 124 5 268 261 248 234 227 220 219 221 214 209 208 212 218 224 226 216 206 199 202 197 197 194 170 164 149 139 125 112 103 96 92 85 77 71 67 61 65 68 64 68 71 261
207 163 170 144 150 186 337 299 326 336 239 237 231 232 228 222 213 210 209 214 219 221 218 210 204 207 207 209 206 191 184 175 152 133 120 115 105 99 89 79 70 68 70 70 72 65 64 64 69
197 165 134 129 102 212 98 269 299 251 137 99 146 178 196 214 216 214 209 209 215 217 214 211 210 208 210 212 208 199 201 189 164 144 139 129 118 109 95 79 73 71 69 68 66 65 65 62 68
208 120 127 108 91 61 217 79 267 282 228 187 184 179 189 201 211 212 212 211 210 215 219 215 211 208 211 211 210 213 211 197 182 165 153 143 135 120 106 90 78 71 72 68 66 64 65 65 64
147 78 48 53 83 351 222 142 274 201 210 161 199 200 211 217 202 210 212 208 208 211 217 216 213 213 215 213 214 218 217 205 193 182 172 163 152 142 124 107 87 76 72 74 73 70 70 66 66
88 91 24 4 6 222 271 99 243 244 217 187 189 194 200 203 200 199 202 203 208 213 215 213 213 215 216 214 212 214 210 201 196 194 185 180 171 155 146 124 96 81 75 74 72 71 69 69 66
176 154 157 194 192 222 114 219 255 278 102 170 172 171 170 177 183 194 198 205 212 214 212 213 215 214 214 210 208 208 203 201 200 199 198 193 182 171 169 141 123 102 84 76 74 72 73 71 66
182 182 159 104 1 54 207 271 278 159 165 163 169 169 168 173 177 188 198 208 213 213 214 215 214 212 209 205 203 205 204 202 204 208 203 199 194 189 179 161 146 114 93 85 82 74 72 72 69
140 164 83 357 132 229 257 270 235 207 209 199 186 188 179 178 184 193 205 209 211 215 218 217 211 215 211 206 203 207 209 208 209 210 209 204 202 199 190 181 167 150 126 105 92 81 76 75 74
157 180 153 129 160 168 174 252 214 208 195 183 191 189 184 188 191 195 204 209 213 217 222 219 210 209 209 207 208 210 213 215 213 212 211 210 208 204 198 190 181 173 150 122 105 91 85 83 77
281 204 167 148 207 223 151 262 335 236 187 179 180 185 185 193 202 200 202 206 209 215 219 216 211 212 211 212 213 214 216 218 218 218 217 214 212 211 203 197 191 188 176 146 117 98 91 89 84
Wind_Speed_850mb
7 1 5 2 8 10 3 4 5 2 3 4 6 11 17 14 5 6 18 6 9 10 16 19 17 14 16 17 17 17 18 18 19 26 27 24 25 23 29 31 35 36 37 37 37 33 30 36 43
5 1 4 4 9 7 5 6 8 5 8 25 18 11 12 6 5 16 13 7 5 10 15 16 15 15 16 15 16 14 12 14 17 22 24 27 25 36 33 33 34 35 36 36 39 38 43 43 40
1 1 4 8 8 8 7 8 7 13 24 2 7 15 7 6 11 13 9 3 7 12 14 14 14 14 16 13 10 12 10 9 14 20 25 29 29 30 32 34 34 37 39 39 42 43 42 40 39
3 3 5 8 8 2 10 11 4 8 7 3 20 14 9 8 6 10 9 2 7 12 13 13 14 16 15 13 12 11 9 12 17 18 23 27 27 30 32 31 35 37 39 40 45 40 43 38 41
4 3 8 9 5 2 3 22 24 9 5 16 5 10 8 11 10 12 7 1 8 11 12 14 15 16 17 17 17 13 9 12 16 20 15 24 24 29 27 30 34 38 38 42 38 32 30 30 38
3 4 8 6 4 3 5 29 18 5 13 11 13 14 7 13 13 12 6 3 10 13 16 16 14 13 13 16 16 13 13 17 18 19 20 22 23 22 20 29 36 37 37 38 32 32 35 34 33
6 7 9 10 11 8 11 24 17 15 12 4 18 9 11 21 19 13 6 4 11 15 14 14 12 10 7 12 15 17 18 18 21 21 21 22 22 22 21 27 32 37 32 34 35 37 39 34 40
4 8 8 6 11 8 17 16 15 20 8 14 11 10 9 30 25 16 10 7 11 13 12 13 7 5 8 12 14 15 21 23 22 21 22 25 25 25 26 30 29 28 36 32 30 36 36 37 40
0 9 4 6 12 12 22 10 11 10 20 9 9 9 8 28 28 22 14 9 8 11 12 7 7 7 10 12 14 20 22 21 21 22 22 23 26 29 29 31 28 23 32 30 36 35 31 34 34
8 7 4 4 4 10 22 16 24 12 14 6 11 17 24 28 28 22 17 8 6 7 6 7 8 8 11 13 17 18 19 20 21 23 24 25 30 32 30 30 29 26 34 41 38 37 34 34 37
6 9 11 3 8 25 14 17 12 21 7 20 29 34 33 29 29 25 20 8 2 3 6 9 8 7 9 13 17 17 20 22 22 23 26 29 30 30 29 31 31 33 37 38 34 34 37 38 42
11 9 8 10 10 12 10 18 8 14 4 8 19 23 33 34 32 27 18 9 6 3 6 8 7 8 8 12 13 17 19 20 21 23 26 26 27 29 29 31 32 35 36 35 36 38 39 40 44
9 8 10 14 14 14 13 7 7 12 15 11 18 29 31 31 29 25 17 15 8 5 6 8 8 7 6 9 12 16 17 18 21 21 24 25 25 28 30 32 34 35 35 35 36 35 34 37 43
13 15 16 9 8 6 7 5 4 10 23 19 23 28 30 30 29 28 24 16 10 7 6 8 9 8 6 7 12 14 16 17 18 19 22 23 25 27 28 32 35 34 32 31 28 30 28 31 37
33 11 5 4 6 3 3 6 12 12 30 27 27 26 28 28 29 22 17 15 13 11 9 9 9 9 7 7 9 12 13 15 15 18 21 21 23 25 27 30 32 35 32 26 21 22 22 24 31
7 10 6 4 9 3 5 13 3 21 34 29 26 28 30 32 27 26 22 20 18 14 12 10 10 11 9 8 9 11 12 12 14 17 18 20 21 23 24 27 31 32 29 26 18 15 17 21 25
10 7 7 5 15 3 4 12 5 26 28 28 30 31 33 33 36 36 28 22 18 17 14 13 13 13 11 9 10 11 11 11 13 15 16 18 19 21 21 26 30 28 26 27 22 14 12 15 21
13 8 6 10 9 6 3 19 10 23 27 30 33 36 38 42 39 37 31 26 21 21 20 18 16 16 14 11 10 10 11 11 13 13 15 17 18 19 20 23 25 25 24 28 26 15 13 12 14
13 9 10 3 5 8 11 15 21 30 31 35 35 41 45 46 38 37 32 28 26 27 25 20 18 19 17 12 10 10 9 10 11 12 14 15 17 17 17 18 21 23 22 24 26 22 12 9 7
7 10 6 2 4 6 2 20 20 17 24 47 47 43 46 50 49 47 42 36 30 26 27 24 22 20 18 15 8 8 9 10 11 12 13 14 15 14 13 15 17 23 24 25 23 22 19 10 2
7 10 8 5 6 2 5 16 9 2 8 21 37 39 32 45 56 56 52 43 33 29 28 26 24 22 19 15 11 11 12 11 11 12 11 12 12 12 12 13 17 19 20 22 25 25 19 20 23
11 7 12 14 7 5 5 8 9 4 2 7 16 24 25 26 51 58 56 48 36 27 27 29 28 24 21 18 15 15 14 11 10 12 11 11 11 10 10 11 14 15 19 21 25 26 23 21 22
9 12 13 9 9 6 3 6 13 1 9 9 12 18 16 15 34 52 57 46 34 29 28 31 30 25 24 22 21 16 14 13 13 13 11 10 10 9 9 10 11 13 17 21 25 25 24 25 26
19 14 17 10 7 3 7 11 10 10 12 9 14 20 15 15 21 39 48 44 37 32 30 32 32 27 25 24 23 19 16 16 15 13 12 11 10 9 8 8 9 11 15 19 22 22 25 27 29
9 12 5 6 4 11 1 7 15 10 9 18 28 22 16 17 21 33 47 51 43 35 31 32 33 31 28 25 23 19 16 17 16 14 13 11 10 10 8 8 8 9 11 16 21 20 24 26 26
9 13 11 16 9 7 3 12 11 6 3 15 22 21 18 16 19 29 39 42 38 33 29 31 33 31 28 25 22 19 17 17 17 15 14 13 11 10 9 8 7 7 10 14 17 17 21 24 27
12 9 9 13 5 5 7 10 7 5 4 14 22 22 20 18 19 27 34 35 33 31 29 27 32 32 29 26 23 21 19 18 17 16 15 14 12 11 9 8 6 6 8 11 14 15 19 22 26
5 8 7 4 8 7 9 8 10 14 19 14 17 26 22 20 22 26 30 33 32 28 27 28 32 30 27 26 24 21 18 17 17 16 15 15 14 12 10 9 7 6 7 9 12 14 16 19 22
6 7 3 8 9 10 7 11 9 18 22 22 30 28 24 20 19 22 25 29 29 30 31 30 36 35 32 29 26 23 19 18 18 18 17 17 15 15 14 12 10 8 7 8 10 12 13 16 18
2 12 12 10 10 5 5 10 3 13 28 38 38 28 20 16 16 18 22 26 33 33 32 33 39 37 32 28 27 25 23 20 19 18 18 17 18 18 17 15 12 10 8 6 7 8 10 14 15
Wind_Direction_850mb
23 209 154 154 52 60 96 209 299 209 10 74 46 80 104 62 17 134 150 179 278 320 337 338 350 10 27 40 38 39 45 41 41 54 51 50 55 55 47 50 50 47 43 41 39 32 34 42 39
43 360 169 103 85 74 254 260 176 199 153 124 93 83 46 92 66 137 143 201 281 342 342 354 5 21 37 31 33 37 42 50 58 59 54 49 49 59 53 54 54 54 49 44 42 43 47 39 35
309 314 196 98 105 145 168 220 199 118 146 231 102 74 75 84 114 145 174 187 350 353 358 7 16 28 37 35 36 35 40 63 74 75 61 56 55 67 59 55 53 56 52 50 50 44 39 48 49
317 130 72 80 85 309 166 197 180 157 137 201 100 58 87 134 167 185 187 30 348 5 14 24 24 38 41 39 37 43 52 70 72 68 61 60 61 76 61 61 61 60 53 57 52 53 58 53 56
12 96 56 74 42 85 109 163 161 166 106 139 96 147 113 157 174 171 173 2 7 16 32 38 36 47 43 45 51 57 71 80 68 61 60 69 70 80 71 70 61 57 57 62 59 63 54 54 56
140 97 77 132 144 93 149 169 155 206 136 126 114 131 158 173 170 173 175 29 24 23 35 40 42 52 46 52 60 72 80 70 65 49 56 66 66 74 74 79 64 61 57 68 62 58 63 57 55
97 81 134 122 138 146 182 173 162 163 145 100 144 120 176 181 180 184 149 77 39 35 38 40 43 51 53 66 65 67 73 66 60 56 59 64 66 67 62 67 65 66 56 68 63 59 60 58 58
67 92 105 125 175 185 150 143 170 164 167 146 178 186 206 181 175 174 176 110 45 39 42 41 37 96 76 75 72 67 65 61 63 67 66 65 63 63 58 57 62 66 63 68 61 66 63 56 61
242 61 78 138 162 175 161 130 157 160 148 172 178 171 167 166 167 178 170 134 57 41 48 46 71 88 89 77 72 63 62 66 72 74 70 70 67 64 57 57 60 62 64 65 68 64 57 54 52
86 84 144 211 177 175 159 159 156 162 150 161 159 162 160 166 166 180 175 143 74 58 65 78 88 92 86 77 70 70 72 77 80 81 80 74 70 66 62 60 57 57 67 77 74 70 65 53 47
95 147 173 48 97 148 136 144 171 156 211 204 200 175 171 168 173 184 176 179 142 101 90 91 98 99 86 74 72 76 78 82 85 85 81 75 74 73 71 68 64 61 66 70 65 62 55 52 50
90 44 135 135 107 137 139 152 176 196 231 202 210 186 180 183 186 181 180 186 192 122 101 98 108 103 88 78 76 86 90 89 91 87 84 84 83 80 74 69 66 63 60 59 60 60 60 56 53
96 154 108 131 124 130 146 173 216 223 196 182 174 183 189 183 185 181 197 200 195 159 126 123 113 112 104 88 88 98 99 95 91 90 87 84 80 76 71 67 64 60 57 53 62 65 60 61 52
144 133 132 144 131 127 157 184 208 208 195 182 182 186 189 190 193 191 198 206 198 185 158 141 126 132 121 100 90 99 96 92 90 89 86 82 78 74 71 67 63 62 57 57 52 66 61 59 49
133 91 57 168 185 147 142 278 233 209 183 180 183 191 192 197 205 210 212 214 209 193 181 154 150 154 144 108 105 106 104 96 95 92 87 84 80 75 70 66 64 60 59 60 50 55 64 58 48
96 64 122 280 166 195 141 261 232 177 181 188 197 199 200 206 215 211 222 220 212 203 192 177 168 170 165 141 126 120 115 109 102 96 93 88 81 76 69 66 65 63 60 66 64 54 62 60 52
8 182 189 276 204 113 153 267 231 182 198 211 211 209 208 208 207 213 226 221 215 211 204 195 179 173 171 154 145 138 126 115 106 95 94 89 82 77 68 66 65 64 61 64 70 66 58 60 59
186 189 188 206 210 159 207 263 263 209 211 220 218 213 211 211 219 219 223 216 220 217 208 198 185 183 181 169 160 151 133 123 107 101 98 92 85 79 70 65 65 64 60 59 63 69 65 66 58
141 146 163 143 165 152 231 269 263 245 233 232 224 216 215 216 215 219 220 218 221 218 214 203 197 190 187 183 176 160 145 125 120 111 101 95 88 81 76 72 71 70 68 65 62 64 74 93 99
145 150 174 41 126 124 5 268 261 248 234 227 220 219 221 214 209 208 212 218 224 226 216 206 199 202 197 197 194 170 164 149 139 125 112 103 96 92 85 77 71 67 61 65 68 64 68 71 261
207 163 170 144 150 186 337 299 326 336 239 237 231 232 228 222 213 210 209 214 219 221 218 210 204 207 207 209 206 191 184 175 152 133 120 115 105 99 89 79 70 68 70 70 72 65 64 64 69
197 165 134 129 102 212 98 269 299 251 137 99 146 178 196 214 216 214 209 209 215 217 214 211 210 208 210 212 208 199 201 189 164 144 139 129 118 109 95 79 73 71 69 68 66 65 65 62 68
208 120 127 108 91 61 217 79 267 282 228 187 184 179 189 201 211 212 212 211 210 215 219 215 211 208 211 211 210 213 211 197 182 165 153 143 135 120 106 90 78 71 72 68 66 64 65 65 64
147 78 48 53 83 351 222 142 274 201 210 161 199 200 211 217 202 210 212 208 208 211 217 216 213 213 215 213 214 218 217 205 193 182 172 163 152 142 124 107 87 76 72 74 73 70 70 66 66
88 91 24 4 6 222 271 99 243 244 217 187 189 194 200 203 200 199 202 203 208 213 215 213 213 215 216 214 212 214 210 201 196 194 185 180 171 155 146 124 96 81 75 74 72 71 69 69 66
176 154 157 194 192 222 114 219 255 278 102 170 172 171 170 177 183 194 198 205 212 214 212 213 215 214 214 210 208 208 203 201 200 199 198 193 182 171 169 141 123 102 84 76 74 72 73 71 66
182 182 159 104 1 54 207 271 278 159 165 163 169 169 168 173 177 188 198 208 213 213 214 215 214 212 209 205 203 205 204 202 204 208 203 199 194 189 179 161 146 114 93 85 82 74 72 72 69
140 164 83 357 132 229 257 270 235 207 209 199 186 188 179 178 184 193 205 209 211 215 218 217 211 215 211 206 203 207 209 208 209 210 209 204 202 199 190 181 167 150 126 105 92 81 76 75 74
157 180 153 129 160 168 174 252 214 208 195 183 191 189 184 188 191 195 204 209 213 217 222 219 210 209 209 207 208 210 213 215 213 212 211 210 208 204 198 190 181 173 150 122 105 91 85 83 77
281 204 167 148 207 223 151 262 335 236 187 179 180 185 185 193 202 200 202 206 209 215 219 216 211 212 211 212 213 214 216 218 218 218 217 214 212 211 203 197 191 188 176 146 117 98 91 89 84